www.pogodaiklimat.ru

Погода и климат >> Архив погоды >> Таиланд >> Тха Тум


ПОГОДА в Тха Тум

  • Прогноз погоды в Тха Тум
  • Монитор погоды в Тха Тум

АРХИВ ПОГОДЫ в Тха Тум

Время (UTC), дата Ветер
(напр.,м/с)
 
Видим.   Явления Облачность Т
(С)
Тd
(С)
f
(%)
Тe
(С)
Тes
(С)
Комфортность P
(гПа)
Po
(гПа)
Тmin
(С)
Tmax
(С)
R
(мм)
R24
(мм)
S
(см)
00 16.04 штиль 0 10 км 8/3 600 м
[Cu hum Ac und Cs]
+26.3 +25.1 93 +38 +39 очень
душно
1010.2 995.4 +25.2 5
03 16.04 штиль 0 10 км 3/0
[Cs]
+32.6 +23.0 57 +43 +64 опасность
перегрева
1011.1 996.6
06 16.04 штиль 0 10 км 3/3 600 м
[Cu hum Cs]
+37.0 +24.6 49 +49 +69 опасность
перегрева
1007.9 993.7
09 16.04 штиль 0 10 км 3/3 600 м
[Cu med, cong Cs]
+37.2 +23.4 45 +47 +54 опасность
перегрева
1004.8 990.6
12 16.04 штиль 0 10 км 3/3 600 м
[Cu med, cong Cs]
+33.5 +25.8 64 +49 +49 опасность
перегрева
1006.8 992.4 +37.6
15 16.04 штиль 0 10 км 3/0
[Cs]
+30.8 +26.2 77 +47 +47 опасность
перегрева
1009.2 994.7
18 16.04 З 6 10 км гроза без осадков 6/3 300 м
[Cb cap Ac As Cs]
+29.0 +26.2 85 +44 +44 опасность
перегрева
1008.7 994.1
21 16.04 штиль 0 10 км {гроза} 3/0
[Cs]
+27.5 +26.1 92 +41 +41 опасность
перегрева
1008.1 993.4 25
00 17.04 штиль 0 8000 м дымка {гроза} 3/0
[Cs]
+27.5 +23.1 77 +37 +39 очень
душно
1010.6 995.9 +26.2 25
03 17.04 штиль 0 8000 м мгла ясно +35.0 +21.0 44 +42 +64 опасность
перегрева
1011.0 996.6
06 17.04 штиль 0 8000 м мгла 3/0
[Cs]
+38.0 +19.9 35 +43 +70 опасность
перегрева
1008.3 994.1
09 17.04 штиль 0 8000 м мгла 4/0
[Cs]
+37.5 +20.9 38 +44 +52 опасность
перегрева
1005.0 990.8
12 17.04 штиль 0 8000 м мгла 3/0
[Cs]
+32.0 +22.5 57 +41 +41 опасность
перегрева
1007.6 993.1 +39.2
15 17.04 штиль 0 8000 м дымка ясно +29.2 +22.3 66 +38 +38 очень
душно
1009.5 994.9
18 17.04 штиль 0 8000 м дымка ясно +28.7 +23.0 71 +38 +38 очень
душно
1008.1 993.5
21 17.04 штиль 0 8000 м дымка ясно +27.0 +24.1 84 +37 +37 очень
душно
1006.4 991.7
00 18.04 В 4 10 км 1/0
[Cs]
+28.1 +25.4 85 +41 +42 опасность
перегрева
1008.3 993.6 +27.0
03 18.04 СВ 4 11 км ясно +35.2 +21.7 46 +43 +55 опасность
перегрева
1007.4 993.1
06 18.04 В 4 11 км 3/0
[Cs]
+36.3 +22.8 46 +46 +59 опасность
перегрева
1007.1 992.9
09 18.04 СВ 5 11 км ясно +37.0 +25.6 52 +51 +55 опасность
перегрева
1006.9 992.7
12 18.04 В 4 11 км ясно +35.0 +24.9 56 +48 +48 опасность
перегрева
1007.5 993.2 +37.1
15 18.04 В 4 10 км 3/1 600 м
[Sc Ac As]
+31.0 +26.1 75 +46 +46 опасность
перегрева
1008.0 993.5
18 18.04 В 3 10 км 3/1 600 м
[Cu med, cong Ac As]
+29.2 +24.6 76 +41 +41 опасность
перегрева
1008.4 993.8
21 18.04 С 2 9000 м дымка 3/1 600 м
[Sc Ac As Cs]
+27.5 +23.9 81 +38 +38 очень
душно
1009.0 994.3
00 19.04 штиль 0 10 км 3/0
[Cs]
+28.6 +25.6 84 +42 +45 опасность
перегрева
1007.4 992.7 +26.7
03 19.04 штиль 0 10 км 3/0
[Cs]
+34.1 +25.6 61 +49 +70 опасность
перегрева
1008.5 994.1
06 19.04 Ю 4 10 км 3/3 600 м
[Cu hum]
+37.5 +23.2 44 +47 +57 опасность
перегрева
1005.7 991.5
09 19.04 штиль 0 10 км 3/3 600 м
[Cu med, cong]
+37.8 +23.9 45 +49 +55 опасность
перегрева
1001.5 987.4
12 19.04 штиль 0 10 км 3/3 600 м
[Cu med, cong Cs]
+34.8 +25.3 58 +49 +49 опасность
перегрева
1003.6 989.3 +39.1
15 19.04 штиль 0 10 км 3/0
[Cs]
+31.6 +25.9 72 +47 +47 опасность
перегрева
1006.2 991.8
18 19.04 штиль 0 10 км 3/0
[Cs]
+29.6 +25.6 79 +44 +44 опасность
перегрева
1005.6 991.1
21 19.04 штиль 0 10 км ясно +28.8 +25.1 80 +42 +42 опасность
перегрева
1004.1 989.6
00 20.04 штиль 0 8000 м дымка ясно +27.5 +23.9 81 +38 +40 очень
душно
1006.9 992.2 +27.2
03 20.04 штиль 0 8000 м мгла ясно +35.2 +23.1 50 +46 +68 опасность
перегрева
1007.3 993.0
06 20.04 З 2 10 км 3/3 600 м
[Cu hum]
+39.0 +23.4 41 +49 +64 опасность
перегрева
1003.8 989.7
09 20.04 штиль 0 8000 м мгла 3/0
[Cs]
+38.0 +19.1 33 +42 +51 опасность
перегрева
1002.2 988.1
12 20.04 штиль 0 8000 м мгла ясно +32.5 +23.4 59 +43 +43 опасность
перегрева
1003.3 988.9 +39.8
15 20.04 штиль 0 8000 м дымка ясно +30.0 +23.0 66 +40 +40 очень
душно
1005.2 990.6
18 20.04 штиль 0 8000 м дымка ясно +29.5 +24.0 72 +41 +41 опасность
перегрева
1005.6 991.1
21 20.04 штиль 0 8000 м дымка ясно +29.0 +23.9 74 +40 +40 очень
душно
1003.3 988.8
00 21.04 В 3 9000 м дымка ясно +29.9 +25.1 75 +43 +45 опасность
перегрева
1006.1 991.6 +28.9
03 21.04 штиль 0 8000 м мгла 1/0
[Cs]
+33.3 +24.3 59 +45 +67 опасность
перегрева
1005.7 991.3
06 21.04 В 2 8000 м мгла 3/1 600 м
[Sc Ac As Cs]
+37.0 +22.6 44 +46 +63 опасность
перегрева
1005.3 991.1
09 21.04 В 3 8000 м мгла 1/0
[Cs]
+37.7 +23.5 44 +48 +53 опасность
перегрева
1005.1 991.0
12 21.04 ЮВ 5 8000 м дымка 3/0
[Ac As Cs]
+34.9 +27.5 66 +54 +54 опасность
перегрева
1005.6 991.3 +37.8
15 21.04 С 4 8000 м дымка 3/1 600 м
[Sc Ac As]
+31.9 +26.5 73 +48 +48 опасность
перегрева
1006.2 991.8
18 21.04 В 4 8000 м дымка 3/1 600 м
[Sc Ac As Cs]
+29.9 +24.6 73 +42 +42 опасность
перегрева
1006.7 992.2
21 21.04 В 4 8000 м дымка 3/0
[Cs]
+28.8 +24.6 78 +41 +41 опасность
перегрева
1006.9 992.3
00 22.04 штиль 0 8000 м дымка ясно +26.8 +22.7 78 +35 +38 очень
душно
1006.9 992.2 +26.7
03 22.04 штиль 0 8000 м мгла ясно +33.3 +24.3 59 +45 +68 опасность
перегрева
1007.7 993.3
06 22.04 Ю 2 10 км 3/3 600 м
[Cu med, cong]
+38.2 +26.2 51 +54 +69 опасность
перегрева
1005.1 991.0
09 22.04 С 6 6000 м дымка 8/5 600 м
[Cu Sc Ac As Cs]
+26.8 +25.1 90 +39 +39 очень
душно
1005.9 991.2
12 22.04 штиль 0 8000 м дымка {гроза} 6/3 600 м
[Sc Ac As Cs]
+26.2 +24.8 92 +37 +37 очень
душно
1006.9 992.1 +39.0 6
15 22.04 штиль 0 8000 м дымка 6/3 600 м
[Sc Ac As Cs]
+25.5 +24.2 93 +35 +35 очень
душно
1009.3 994.5
18 22.04 штиль 0 8000 м дымка 6/3 600 м
[Sc Ac As Cs]
+25.2 +23.4 90 +34 +34 очень
душно
1007.8 993.0
21 22.04 штиль 0 8000 м дымка 6/0
[Ac As Cs]
+25.0 +23.5 91 +34 +34 очень
душно
1007.6 992.8

 

Местоположение метеостанции Тха Тум (Таиланд): широта 15.32 долгота 103.68 высота над уровнем моря 129 м.

В архиве по умолчанию представлена погода в Тха Тум за последнюю неделю. Архивные данные за месяц целиком и за предыдущие месяцы, начиная с января 2011 года, Вы можете получить, выбрав интересующий диапазон дат из раскрывающегося списка и нажав кнопку "Ввод!".


*Определитесь, кто Вы:
робот инопланетянин человек

Внимание! Время в таблицах - всемирное. Для получения местного времени необходимо прибавить поправку, которая равна 7 ч.

Смотрите также архив погоды в соседних городах и на ближайших метеорологических станциях:

Погода в Бури-Рам (Таиланд) (47 км)
Погода в Сурине (Таиланд) (53 км)
Погода в Сурин Агромете (Таиланд) (55 км)
Погода в Си Сакет Агромете (Таиланд) (69 км)
Погода в Рой Эт (Таиланд) (81 км)
Погода в Рой Эт Агромете (Таиланд) (84 км)
Погода в Камаласаи (Таиланд) (113 км)
Погода в Косумпхисаи (Таиланд) (121 км)
Погода в Нанг Ронг (Таиланд) (125 км)
Погода в Убонратчатхани (Таиланд) (127 км)

Пояснения к столбцам:

Ветер - указаны скорость ветра в м/с - средняя за 10 мин, порывы в срок и между сроками (в фигурных скобках) и направление, откуда дует ветер: С - северный, СВ - северо-восточный, В - восточный, ЮВ - юго-восточный, Ю - южный, ЮЗ - юго-западный, З - западный, СЗ - северо-западный.
Видимость - горизонтальная дальность видимости в метрах или километрах. При видимости от 1 до 10 км при отсутствии осадков обычно наблюдается дымка, при ухудшении видимости до 1 км и менее - туман. В сухую погоду видимость может ухудшаться дымом, пылью или мглою.
Явления - указаны атмосферные явления, наблюдавшиеся в срок или в последний час перед сроком; фигурными скобками обозначены явления, наблюдавшиеся между сроками (за 1-3 часа до срока); квадратными скобками обозначены град или гололедные отложения с указанием их диаметра в мм.
Облачность - указаны через наклонную черту общая и нижняя облачность в баллах и высота нижней границы облаков в метрах; квадратными скобками обозначены формы облаков: Ci - перистые, Cs - перисто-слоистые, Cc - перисто-кучевые, Ac - высококучевые, As - высокослоистые, Sc - слоисто-кучевые, Ns - слоисто-дождевые, Cu - кучевые, Cb - кучево-дождевые. Подробнее классификацию облаков см. в Атласе облаков (PDF).
T - Температура воздуха - температура, измеренная на высоте 2 м над землей.
Td - Температура точки росы - температура, при понижении до которой содержащийся в воздухе водяной пар достигнет насыщения.
f - Относительная влажность воздуха - влажноcть воздуха, измеренная на высоте 2 м над землей.
Te - Эффективная температура - температура, которую ощущает одетый по сезону человек в тени. Характеристика душности погоды. При расчете учитывается влияние влажности воздуха и скорости ветра на теплоощущения человека.
Tes - Эффективная температура на солнце - температура, которую ощущает человек, с поправкой на солнечный нагрев. Характеристика знойности погоды. Зависит от высоты солнца над горизонтом, облачности и скорости ветра. Ночью, в пасмурную погоду, а также при ветре 12 м/с и более поправка равна нулю.
P - Атмосферное давление - приведенное к уровню моря атмосферное давление.
Po - Атмосферное давление - измеренное на уровне метеостанции атмосферное давление.
Tmin - Минимальная температура - минимум температуры воздуха на высоте 2 м над землей.
Tmax - Максимальная температура - максимум температуры воздуха на высоте 2 м над землей.
R - Количество осадков - Количество выпавших осадков за период времени, мм. При наведении курсора мыши на число - период времени, за который выпало указанное количество осадков.
R24 - Количество осадков - Количество выпавших осадков за 24 часа, мм.
S - Снежный покров - Высота снежного покрова, см. При наведении курсора мыши на число - состояние снежного покрова и степень покрытия местности в баллах.